• en Suisse
  • Liste des pays
  • À 7 jours
  • Température de l'eau
  • Carte satellitaire
  • Carte météo
  • Widgets météo
  • user-avatar
    Se connecter

    Météo par heure à Balho

    Ce jour, 22 Juin, Vendredi

    Heure Température Précipitation Vent Pression Humidité
    00:00 +39°C° 0 mm 2 m/s 732 mmHg 30%
    01:00 +38°C° 0 mm 2 m/s 732 mmHg 30%
    02:00 +37°C° 0 mm 1 m/s 732 mmHg 30%
    03:00 +35°C° 0 mm 0 m/s 732 mmHg 29%
    04:00 +36°C° 0 mm 1 m/s 732 mmHg 30%
    05:00 +36°C° 0 mm 1 m/s 732 mmHg 30%
    06:00 +36°C° 0 mm 1 m/s 732 mmHg 31%
    07:00 +38°C° 0 mm 2 m/s 732 mmHg 27%
    08:00 +39°C° 0 mm 2 m/s 732 mmHg 23%
    09:00 +40°C° 0 mm 3 m/s 733 mmHg 20%
    10:00 +42°C° 0 mm 4 m/s 733 mmHg 18%
    11:00 +44°C° 0 mm 4 m/s 732 mmHg 17%
    12:00 +46°C° 0 mm 5 m/s 732 mmHg 15%
    13:00 +47°C° 0 mm 5 m/s 732 mmHg 14%
    14:00 +47°C° 0 mm 5 m/s 731 mmHg 13%
    15:00 +48°C° 0 mm 5 m/s 731 mmHg 12%
    16:00 +47°C° 0 mm 5 m/s 730 mmHg 13%
    17:00 +47°C° 0 mm 5 m/s 730 mmHg 14%
    18:00 +47°C° 0 mm 5 m/s 730 mmHg 15%
    19:00 +45°C° 0 mm 5 m/s 730 mmHg 18%
    20:00 +43°C° 0 mm 5 m/s 731 mmHg 21%
    21:00 +42°C° 0 mm 6 m/s 731 mmHg 24%
    22:00 +42°C° 0 mm 5 m/s 731 mmHg 24%
    23:00 +41°C° 0 mm 5 m/s 731 mmHg 25%

    Demain, 23 Juin, Samedi

    Heure Température Précipitation Vent Pression Humidité
    00:00 +40°C° 0 mm 5 m/s 731 mmHg 26%
    01:00 +40°C° 0 mm 4 m/s 731 mmHg 25%
    02:00 +39°C° 0 mm 3 m/s 731 mmHg 24%
    03:00 +39°C° 0 mm 3 m/s 730 mmHg 24%
    04:00 +38°C° 0 mm 2 m/s 730 mmHg 24%
    05:00 +37°C° 0 mm 1 m/s 731 mmHg 25%
    06:00 +37°C° 0 mm 1 m/s 731 mmHg 25%
    07:00 +37°C° 0 mm 1 m/s 731 mmHg 24%
    08:00 +39°C° 0 mm 2 m/s 732 mmHg 23%
    09:00 +40°C° 0 mm 2 m/s 732 mmHg 21%
    10:00 +41°C° 0 mm 2 m/s 732 mmHg 20%
    11:00 +42°C° 0 mm 2 m/s 732 mmHg 19%
    12:00 +44°C° 0 mm 3 m/s 732 mmHg 18%
    13:00 +45°C° 0 mm 3 m/s 731 mmHg 17%
    14:00 +45°C° 0 mm 3 m/s 730 mmHg 16%
    15:00 +47°C° 0 mm 4 m/s 730 mmHg 14%
    16:00 +47°C° 0 mm 4 m/s 729 mmHg 15%
    17:00 +47°C° 0 mm 5 m/s 729 mmHg 16%
    18:00 +46°C° 0 mm 5 m/s 729 mmHg 17%
    19:00 +45°C° 0 mm 5 m/s 729 mmHg 20%
    20:00 +43°C° 0 mm 4 m/s 729 mmHg 22%
    21:00 +42°C° 0 mm 4 m/s 730 mmHg 25%
    22:00 +42°C° 0 mm 3 m/s 730 mmHg 26%
    23:00 +40°C° 0 mm 2 m/s 730 mmHg 26%

    Après-demain, 24 Juin, Dimanche

    Heure Température Précipitation Vent Pression Humidité
    00:00 +40°C° 0 mm 2 m/s 730 mmHg 27%
    01:00 +39°C° 0 mm 2 m/s 730 mmHg 27%
    02:00 +39°C° 0 mm 1 m/s 729 mmHg 27%
    03:00 +39°C° 0 mm 1 m/s 729 mmHg 28%
    04:00 +37°C° 0 mm 1 m/s 729 mmHg 28%
    05:00 +37°C° 0 mm 1 m/s 729 mmHg 29%
    06:00 +36°C° 0 mm 1 m/s 730 mmHg 30%
    07:00 +38°C° 0 mm 2 m/s 730 mmHg 28%
    08:00 +39°C° 0 mm 3 m/s 731 mmHg 26%
    09:00 +40°C° 0 mm 3 m/s 731 mmHg 24%
    10:00 +42°C° 0 mm 3 m/s 731 mmHg 22%
    11:00 +43°C° 0 mm 3 m/s 731 mmHg 20%
    12:00 +45°C° 0 mm 3 m/s 731 mmHg 17%
    13:00 +45°C° 0 mm 4 m/s 731 mmHg 17%
    14:00 +47°C° 0 mm 5 m/s 730 mmHg 16%
    15:00 +47°C° 0 mm 6 m/s 729 mmHg 15%
    16:00 +47°C° 0 mm 7 m/s 729 mmHg 17%
    17:00 +46°C° 0 mm 7 m/s 729 mmHg 18%
    18:00 +45°C° 0 mm 8 m/s 729 mmHg 20%
    19:00 +44°C° 0 mm 8 m/s 730 mmHg 23%
    20:00 +43°C° 0 mm 7 m/s 730 mmHg 26%
    21:00 +40°C° 0 mm 7 m/s 731 mmHg 29%
    22:00 +40°C° 0 mm 6 m/s 731 mmHg 29%
    23:00 +40°C° 0 mm 5 m/s 731 mmHg 29%

    25 Juin, Lundi

    Heure Température Précipitation Vent Pression Humidité
    00:00 +38°C° 0 mm 4 m/s 731 mmHg 29%
    01:00 +38°C° 0 mm 4 m/s 731 mmHg 30%
    02:00 +38°C° 0 mm 3 m/s 731 mmHg 30%
    03:00 +37°C° 0 mm 3 m/s 731 mmHg 31%
    04:00 +37°C° 0 mm 2 m/s 731 mmHg 32%
    05:00 +36°C° 0 mm 1 m/s 732 mmHg 32%
    06:00 +35°C° 0 mm 1 m/s 732 mmHg 33%
    07:00 +36°C° 0 mm 1 m/s 732 mmHg 30%
    08:00 +38°C° 0 mm 2 m/s 733 mmHg 28%
    09:00 +39°C° 0 mm 2 m/s 733 mmHg 25%
    10:00 +39°C° 0 mm 3 m/s 733 mmHg 23%
    11:00 +40°C° 0 mm 3 m/s 733 mmHg 22%
    12:00 +42°C° 0 mm 3 m/s 732 mmHg 20%
    13:00 +43°C° 0 mm 3 m/s 732 mmHg 19%
    14:00 +44°C° 0 mm 4 m/s 731 mmHg 18%
    15:00 +44°C° 0 mm 4 m/s 730 mmHg 17%
    16:00 +45°C° 0 mm 5 m/s 730 mmHg 18%
    17:00 +45°C° 0 mm 5 m/s 730 mmHg 19%
    18:00 +45°C° 0 mm 6 m/s 730 mmHg 21%
    19:00 +42°C° 0,3 mm 6 m/s 731 mmHg 24%
    20:00 +41°C° 0,3 mm 6 m/s 731 mmHg 27%
    21:00 +40°C° 0,3 mm 6 m/s 732 mmHg 31%
    22:00 +40°C° 0 mm 5 m/s 732 mmHg 31%
    23:00 +38°C° 0 mm 4 m/s 732 mmHg 31%

    26 Juin, Mardi

    Heure Température Précipitation Vent Pression Humidité
    00:00 +38°C° 0 mm 3 m/s 732 mmHg 31%
    01:00 +38°C° 0 mm 3 m/s 732 mmHg 32%
    02:00 +37°C° 0 mm 2 m/s 731 mmHg 33%
    03:00 +36°C° 0 mm 1 m/s 731 mmHg 34%
    04:00 +36°C° 0 mm 1 m/s 731 mmHg 35%
    05:00 +35°C° 0 mm 1 m/s 732 mmHg 36%
    06:00 +35°C° 0 mm 1 m/s 732 mmHg 36%
    07:00 +36°C° 0 mm 1 m/s 733 mmHg 35%
    08:00 +36°C° 0 mm 1 m/s 733 mmHg 33%
    09:00 +37°C° 0 mm 1 m/s 733 mmHg 32%
    10:00 +39°C° 0 mm 1 m/s 733 mmHg 30%
    11:00 +40°C° 0 mm 2 m/s 732 mmHg 27%
    12:00 +41°C° 0 mm 2 m/s 732 mmHg 25%
    13:00 +42°C° 0 mm 2 m/s 731 mmHg 23%
    14:00 +43°C° 0 mm 2 m/s 731 mmHg 21%
    15:00 +45°C° 0 mm 3 m/s 730 mmHg 19%
    16:00 +44°C° 0 mm 3 m/s 730 mmHg 19%
    17:00 +44°C° 0 mm 4 m/s 730 mmHg 20%
    18:00 +44°C° 0 mm 4 m/s 730 mmHg 20%
    19:00 +43°C° 0,2 mm 5 m/s 730 mmHg 23%
    20:00 +42°C° 0,2 mm 6 m/s 731 mmHg 26%
    21:00 +41°C° 0,2 mm 6 m/s 732 mmHg 30%
    22:00 +40°C° 0,2 mm 5 m/s 731 mmHg 30%
    23:00 +40°C° 0,2 mm 4 m/s 731 mmHg 31%

    27 Juin, Mercredi

    Heure Température Précipitation Vent Pression Humidité
    00:00 +38°C° 0,2 mm 3 m/s 731 mmHg 32%
    01:00 +38°C° 0 mm 3 m/s 731 mmHg 32%
    02:00 +38°C° 0 mm 2 m/s 731 mmHg 33%
    03:00 +37°C° 0 mm 1 m/s 730 mmHg 33%
    04:00 +37°C° 0 mm 2 m/s 731 mmHg 33%
    05:00 +37°C° 0 mm 2 m/s 731 mmHg 34%
    06:00 +37°C° 0 mm 2 m/s 732 mmHg 35%
    07:00 +37°C° 0 mm 3 m/s 732 mmHg 33%
    08:00 +38°C° 0 mm 3 m/s 733 mmHg 32%
    09:00 +39°C° 0 mm 3 m/s 733 mmHg 31%
    10:00 +40°C° 0 mm 3 m/s 733 mmHg 28%
    11:00 +42°C° 0 mm 3 m/s 732 mmHg 26%
    12:00 +43°C° 0 mm 3 m/s 732 mmHg 23%
    13:00 +43°C° 0 mm 3 m/s 731 mmHg 22%
    14:00 +44°C° 0 mm 3 m/s 730 mmHg 20%
    15:00 +45°C° 0 mm 4 m/s 730 mmHg 18%
    16:00 +45°C° 0,1 mm 4 m/s 730 mmHg 19%
    17:00 +45°C° 0,1 mm 5 m/s 730 mmHg 19%
    18:00 +45°C° 0,1 mm 5 m/s 730 mmHg 19%
    19:00 +43°C° 0 mm 5 m/s 730 mmHg 22%
    20:00 +42°C° 0 mm 6 m/s 730 mmHg 25%
    21:00 +41°C° 0 mm 6 m/s 731 mmHg 28%
    22:00 +41°C° 0 mm 5 m/s 731 mmHg 29%
    23:00 +40°C° 0 mm 5 m/s 730 mmHg 31%
    Voir plus